TimeMST,TemperatureF,Dew PointF,Humidity,Sea Level PressureIn,VisibilityMPH,Wind Direction,Wind SpeedMPH,Gust SpeedMPH,PrecipitationIn,Events,Conditions,WindDirDegrees,DateUTC
12:54 AM,6.1,1.9,83,30.30,10.0,Calm,Calm,-,N/A,,Clear,0,2013-01-07 07:54:00
1:54 AM,-0.0,-2.9,88,30.33,6.0,North,5.8,-,N/A,,Clear,350,2013-01-07 08:54:00
2:54 AM,1.0,-2.9,83,30.34,10.0,South,3.5,-,N/A,,Clear,170,2013-01-07 09:54:00
3:54 AM,-0.9,-5.1,83,30.35,10.0,North,5.8,-,N/A,,Clear,350,2013-01-07 10:54:00
4:54 AM,-2.0,-5.1,87,30.34,10.0,SSW,8.1,-,N/A,,Clear,200,2013-01-07 11:54:00
5:54 AM,-0.0,-4.0,83,30.32,10.0,North,4.6,-,N/A,,Clear,10,2013-01-07 12:54:00
6:54 AM,-0.9,-5.1,83,30.36,9.0,North,9.2,-,N/A,,Clear,350,2013-01-07 13:54:00
7:54 AM,-5.1,-8.0,87,30.38,10.0,South,5.8,-,N/A,,Clear,170,2013-01-07 14:54:00
8:54 AM,5.0,-0.0,80,30.36,10.0,North,3.5,-,N/A,,Clear,360,2013-01-07 15:54:00
9:54 AM,5.0,1.0,84,30.38,10.0,Calm,Calm,-,N/A,,Clear,0,2013-01-07 16:54:00
10:54 AM,8.1,3.0,80,30.37,10.0,Calm,Calm,-,N/A,,Clear,0,2013-01-07 17:54:00
12:54 PM,16.0,5.0,62,30.24,10.0,Calm,Calm,-,N/A,,Clear,0,2013-01-07 19:54:00
1:54 PM,19.9,6.1,55,30.26,10.0,WNW,4.6,-,N/A,,Clear,300,2013-01-07 20:54:00
2:54 PM,24.1,8.1,51,30.21,10.0,SW,8.1,-,N/A,,Clear,230,2013-01-07 21:54:00
4:54 PM,23.0,8.1,53,30.21,10.0,WSW,17.3,-,N/A,,Clear,240,2013-01-07 23:54:00
5:54 PM,23.0,9.0,55,30.19,10.0,WSW,23.0,-,N/A,,Partly Cloudy,250,2013-01-08 00:54:00
6:54 PM,21.9,10.0,60,30.19,10.0,WSW,27.6,-,N/A,,Clear,250,2013-01-08 01:54:00
7:54 PM,25.0,10.9,55,30.22,10.0,SW,18.4,-,N/A,,Overcast,230,2013-01-08 02:54:00
8:54 PM,24.1,12.9,62,30.14,10.0,WSW,28.8,-,N/A,,Partly Cloudy,250,2013-01-08 03:54:00
9:54 PM,24.1,15.1,69,30.17,10.0,WSW,27.6,33.4,N/A,,Clear,250,2013-01-08 04:54:00
10:54 PM,25.0,17.1,72,30.15,10.0,West,26.5,36.8,N/A,,Clear,260,2013-01-08 05:54:00
11:54 PM,24.1,17.1,75,30.16,10.0,West,17.3,-,N/A,,Mostly Cloudy,260,2013-01-08 06:54:00